星链-4799 (STARLINK-4799 )

导读 | 星芒AI

STARLINK-4799 是 SpaceX 星链计划中的一颗低轨通信卫星,属于第 16 批星链卫星组(Batch 16)。该卫星于 2022 年 9 月 由猎鹰 9 号火箭发射升空,部署在约 550 公里的近地轨道上。它采用先进的相控阵天线和激光通信技术,旨在为全球用户提供高速、低延迟的互联网服务。作为星链网络的一部分,STARLINK-4799 有助于扩大卫星互联网的覆盖范围,特别是在偏远和网络基础设施薄弱的地区。

基本信息
目录编号:
53860
目录名称:
STARLINK-4799
国际标识:
2022-114AU
轨道中心:
EARTH
卫星名称:
星链-4799
卫星全名:
星链-4799 (STARLINK-4799 )
卫星状态:
在轨 (已飞行1143 天)
发射日期:
2022-09-19 UTC
国别 :
美国 (US)
星等 :
--
轨道信息
数据来源 国际轨道数据 AOE轨道数据
星历时间 2025-11-05T02:48:25+0800
5小时前
查看轨道信息
2025-11-03T04:00:00+0800
2天前
查看轨道信息
半长轴 6917.879km 6917.893km
偏心率 0.0001443 0.0001346
轨道倾角 53.214° 53.214°
近地点辐角 89.012° 87.046°
升交点赤经 124.961° 133.717°
平近点角 271.103° 113.650°
近地点 538.745km 538.826km
远地点 540.743km 540.69km
周期 95.438分钟 95.438分钟
每日圈数 15.088407 15.08836
详细信息
固有亮度:
5
最大亮度:
2.5
卫星平台:
Starlink v1.5
覆盖范围:
全球
运营商:
太空探索技术公司
运营商所在国:
美国
制造商(研发单位):
太空探索技术公司
制造商所在国:
美国
使用方式:
暂无
卫星简介
星链(Starlink)计划是由太空探索技术公司(SpaceX)提出的一个巨型低轨卫星互联网星座项目,计划在2019年至2024年间在太空搭建由约1.2万颗卫星组成的“星链”网络,其中1584颗将部署在地球上空550千米处的近地轨道,并从2020年开始工作。该卫星仍在工作。
2D轨道图
3D轨道图
轨道高度分析图
轨道倾角分析图
轨道综合分析图
查看轨道综合分析图